Location: Unspecified
(42.3650°N, 71.1030°W)
Time: 14:41:15
(UTC+00:00)

SJ-6B - Pass Details

Date: 21 June 2024
Orbit: 489 x 545 km, 97.4° (Epoch: 23 July)

Event Time Altitude Azimuth Distance (km) Brightness Sun altitude
Rises 00:49:17 0° 198° (SSW) 2,550 6.0 -4.5°
Reaches altitude 10° 00:51:43 10° 215° (SW) 1,679 5.3 -4.9°
Maximum altitude 00:54:29 21° 266° (W) 1,166 5.2 -5.3°
Drops below altitude 10° 00:57:18 10° 316° (NW) 1,705 7.2 -5.7°
Sets 00:59:48 0° 333° (NNW) 2,603 7.7 -6.0°
